Weather History for KCXO - May, 2013

Change the Weather History Date:

Sunday, May 5, 2013

  Actual Average Record
Temperature  
Mean Temperature 56 °F -  
Max Temperature 71 °F 82 °F 90 °F (1999)
Min Temperature 41 °F 60 °F 41 °F (2013)
Degree Days  
Heating Degree Days 9    
Growing Degree Days 6 (Base 50)    
Moisture  
Dew Point 42 °F    
Average Humidity 66    
Maximum Humidity 96    
Minimum Humidity 34    
Precipitation  
Precipitation 0.00 in - - ()
Sea Level Pressure  
Sea Level Pressure 30.05 in    
Wind  
Wind Speed 4 mph (NNW)    
Max Wind Speed 14 mph    
Max Gust Speed 22 mph    
Visibility 10 miles    
Events      
Averages and records for this station are not official NWS values.
T = Trace of Precipitation, MM = Missing Value Source: NWS Daily Summary

Daily Weather History Graph

Daily Weather History Graph

Search for Another Location

Airport or City:

Trip Planner

Search our weather history database for the weather conditions in past years. The results will help you decide how hot, cold, wet, or windy it might be!

Date:

Astronomy

May. 05, 2013 Rise Set
Actual Time 6:34 AM CDT 8:02 PM CDT
Civil Twilight 6:08 AM CDT 8:28 PM CDT
Nautical Twilight 5:38 AM CDT 8:58 PM CDT
Astronomical Twilight 5:06 AM CDT 9:31 PM CDT
Moon 3:48 AM CDT (5/5) 4:18 PM CDT (5/5)
Length of Visible Light 14h 19m
Length of Day
13h 27m
Waning Crescent, 18% of the Moon is Illuminated
May 5
Waning Crescent
May 9
New
May 17
First Quarter
May 24
Full
May 31
Last Quarter

Hourly Weather History & Observations

Time (CDT) Temp. Dew Point Humidity Pressure Visibility Wind Dir Wind Speed Gust Speed Precip Events Conditions
12:53 AM 50.0 °F 46.0 °F 86% 29.98 in 10.0 mi Calm Calm - N/A   Clear
1:53 AM 48.0 °F 44.1 °F 86% 29.99 in 10.0 mi Calm Calm - N/A   Clear
2:53 AM 45.0 °F 43.0 °F 93% 29.99 in 10.0 mi Calm Calm - N/A   Clear
3:53 AM 43.0 °F 41.0 °F 93% 29.99 in 10.0 mi Calm Calm - N/A   Clear
4:53 AM 41.0 °F 39.9 °F 96% 30.01 in 10.0 mi Calm Calm - N/A   Clear
5:53 AM 41.0 °F 39.0 °F 93% 30.03 in 10.0 mi Calm Calm - N/A   Clear
6:53 AM 42.1 °F 39.0 °F 89% 30.05 in 10.0 mi Calm Calm - N/A   Clear
7:53 AM 50.0 °F 41.0 °F 71% 30.08 in 10.0 mi North 6.9 mph - N/A   Clear
8:53 AM 54.0 °F 41.0 °F 62% 30.10 in 10.0 mi North 13.8 mph - N/A   Clear
9:53 AM 59.0 °F 41.0 °F 51% 30.11 in 10.0 mi North 9.2 mph 18.4 mph N/A   Clear
10:53 AM 61.0 °F 39.9 °F 46% 30.12 in 10.0 mi North 11.5 mph 17.3 mph N/A   Clear
11:53 AM 62.1 °F 39.9 °F 44% 30.12 in 10.0 mi NW 10.4 mph 20.7 mph N/A   Clear
1:53 PM 68.0 °F 42.1 °F 39% 30.08 in 10.0 mi WNW 13.8 mph 20.7 mph N/A   Clear
2:53 PM 69.1 °F 42.1 °F 38% 30.06 in 10.0 mi NNW 13.8 mph 21.9 mph N/A   Clear
3:53 PM 70.0 °F 41.0 °F 35% 30.04 in 10.0 mi North 12.7 mph - N/A   Clear
4:53 PM 71.1 °F 41.0 °F 34% 30.02 in 10.0 mi NNW 10.4 mph 19.6 mph N/A   Clear
5:53 PM 69.1 °F 41.0 °F 36% 30.02 in 10.0 mi NW 10.4 mph 17.3 mph N/A   Clear
6:53 PM 68.0 °F 42.1 °F 39% 30.02 in 10.0 mi North 10.4 mph - N/A   Clear
7:53 PM 63.0 °F 44.1 °F 50% 30.04 in 10.0 mi North 4.6 mph - N/A   Clear
8:53 PM 55.0 °F 46.9 °F 74% 30.06 in 10.0 mi Calm Calm - N/A   Clear
9:53 PM 51.1 °F 46.0 °F 83% 30.07 in 10.0 mi Calm Calm - N/A   Clear
10:53 PM 48.0 °F 45.0 °F 89% 30.09 in 10.0 mi Calm Calm - N/A   Clear
11:53 PM 46.9 °F 44.1 °F 90% 30.09 in 10.0 mi Calm Calm - N/A   Clear